Regional Weather Roundup
Issued by NWS

Home | Current Version | Previous Version | Text Only | Print | Product List | Glossary Off
Versions: 1 2 3 4 5 6 7 8 9 10 11 12 13 14 15 16 17 18 19 20 21 22 23 24 25 26 27 28 29 30 31 32 33 34 35 36 37 38 39 40 41 42 43 44 45 46 47 48 49 50

166
ASUS43 KBIS 010410
RWRND

NORTH DAKOTA REGIONAL WEATHER ROUNDUP
NATIONAL WEATHER SERVICE BISMARCK ND
1100 PM CDT TUE MAY 31 2016

NOTE: "FAIR" INDICATES FEW OR NO CLOUDS BELOW 12,000 FEET WITH NO
SIGNIFICANT WEATHER AND/OR OBSTRUCTIONS TO VISIBILITY.


NDZ001>003-009>011-017-010500-
NORTHWEST NORTH DAKOTA

CITY           SKY/WX    TMP DP  RH WIND       PRES   REMARKS
WILLISTON      CLOUDY    53  48  83 N9        29.96R
MINOT          LGT RAIN  52  49  89 NW23G36   29.80R FOG
MINOT AFB      DRIZZLE   50  48  95 NW20G32   29.79R
$$

NDZ018>021-031>035-040>046-010500-
SOUTHWEST NORTH DAKOTA

CITY           SKY/WX    TMP DP  RH WIND       PRES   REMARKS
BISMARCK       CLOUDY    52  49  89 NW18G29   29.81R
DICKINSON      CLOUDY    49  46  90 NW15      29.92R
GARRISON         N/A     50  47  89 NW28G36   29.82R
HETTINGER ARPT PTCLDY    48  45  89 W12       29.97R
$$

NDZ004>008-012>016-024-026-027-054-010500-
NORTHEAST NORTH DAKOTA

CITY           SKY/WX    TMP DP  RH WIND       PRES   REMARKS
GRAND FORKS    LGT RAIN  54  52  93 N3        29.63F
GRND FRKS AFB  RAIN      53  52  96 CALM      29.64F FOG
DEVILS LAKE    CLOUDY    55  50  83 W6        29.67R
$$

NDZ022-023-025-028>030-036>039-047>053-010500-
SOUTHEAST NORTH DAKOTA

CITY           SKY/WX    TMP DP  RH WIND       PRES   REMARKS
FARGO          CLOUDY    60  51  72 SW17      29.64S
JAMESTOWN      MOCLDY    54  51  90 NW7       29.67R
$$





USA.gov is the U.S. government's official web portal to all federal, state and local government web resources and services.